Time,TemperatureF,DewpointF,PressureIn,WindDirection,WindDirectionDegrees,WindSpeedMPH,WindSpeedGustMPH,Humidity,HourlyPrecipIn,Conditions,Clouds,dailyrainin,SoftwareType,DateUTC
2013-10-18 00:09:00,44.8,39.0,30.01,West,269,11.0,15.0,80,0.00,,,0.00,weatherlink.com 1.10,2013-10-18 05:09:00,
2013-10-18 00:24:00,44.6,39.0,30.01,West,265,8.0,14.0,80,0.00,,,0.00,weatherlink.com 1.10,2013-10-18 05:24:00,
2013-10-18 00:39:00,43.7,38.0,30.00,WNW,295,11.0,15.0,81,0.00,,,0.00,weatherlink.com 1.10,2013-10-18 05:39:00,
2013-10-18 00:54:00,44.3,39.0,30.00,WNW,293,7.0,14.0,81,0.00,,,0.00,weatherlink.com 1.10,2013-10-18 05:54:00,
2013-10-18 01:09:00,44.5,38.0,30.01,WNW,303,9.0,14.0,79,0.00,,,0.00,weatherlink.com 1.10,2013-10-18 06:09:00,
2013-10-18 01:24:00,44.3,38.0,30.01,NW,304,11.0,15.0,79,0.00,,,0.00,weatherlink.com 1.10,2013-10-18 06:24:00,
2013-10-18 01:39:00,44.2,38.0,30.01,WNW,296,12.0,15.0,79,0.00,,,0.00,weatherlink.com 1.10,2013-10-18 06:39:00,
2013-10-18 01:54:00,44.1,38.0,30.01,WNW,282,7.0,13.0,80,0.00,,,0.00,weatherlink.com 1.10,2013-10-18 06:54:00,
2013-10-18 02:09:00,42.9,37.0,30.01,WNW,299,9.0,12.0,80,0.00,,,0.00,weatherlink.com 1.10,2013-10-18 07:09:00,
2013-10-18 02:24:00,41.9,37.0,30.02,WNW,294,6.0,7.0,84,0.00,,,0.00,weatherlink.com 1.10,2013-10-18 07:24:00,
2013-10-18 02:39:00,42.0,38.0,30.02,WNW,300,4.0,9.0,84,0.00,,,0.00,weatherlink.com 1.10,2013-10-18 07:39:00,
2013-10-18 02:54:00,41.1,37.0,30.02,West,276,2.0,6.0,85,0.00,,,0.00,weatherlink.com 1.10,2013-10-18 07:54:00,
2013-10-18 03:09:00,40.7,37.0,30.02,West,275,2.0,6.0,86,0.00,,,0.00,weatherlink.com 1.10,2013-10-18 08:09:00,
2013-10-18 03:24:00,40.1,36.0,30.02,WSW,257,3.0,4.0,86,0.00,,,0.00,weatherlink.com 1.10,2013-10-18 08:24:00,
2013-10-18 03:39:00,39.5,36.0,30.02,West,274,2.0,5.0,87,0.00,,,0.00,weatherlink.com 1.10,2013-10-18 08:39:00,
2013-10-18 03:54:00,39.2,36.0,30.02,West,273,2.0,7.0,88,0.00,,,0.00,weatherlink.com 1.10,2013-10-18 08:54:00,
2013-10-18 04:09:00,38.7,36.0,30.02,West,267,3.0,5.0,88,0.00,,,0.00,weatherlink.com 1.10,2013-10-18 09:09:00,
2013-10-18 04:24:00,37.9,35.0,30.02,West,274,1.0,7.0,89,0.00,,,0.00,weatherlink.com 1.10,2013-10-18 09:24:00,
2013-10-18 04:39:00,37.2,35.0,30.02,WSW,254,3.0,5.0,90,0.00,,,0.00,weatherlink.com 1.10,2013-10-18 09:39:00,
2013-10-18 04:54:00,37.5,35.0,30.02,West,265,3.0,5.0,90,0.00,,,0.00,weatherlink.com 1.10,2013-10-18 09:54:00,
2013-10-18 05:09:00,37.6,35.0,30.03,West,270,2.0,5.0,90,0.00,,,0.00,weatherlink.com 1.10,2013-10-18 10:09:00,
2013-10-18 05:24:00,37.3,35.0,30.03,West,280,2.0,5.0,90,0.00,,,0.00,weatherlink.com 1.10,2013-10-18 10:24:00,
2013-10-18 05:39:00,37.8,35.0,30.04,West,273,3.0,6.0,90,0.00,,,0.00,weatherlink.com 1.10,2013-10-18 10:39:00,
2013-10-18 05:54:00,37.8,35.0,30.04,WSW,247,1.0,5.0,89,0.00,,,0.00,weatherlink.com 1.10,2013-10-18 10:54:00,
2013-10-18 06:09:00,37.5,35.0,30.05,WNW,284,2.0,6.0,89,0.00,,,0.00,weatherlink.com 1.10,2013-10-18 11:09:00,
2013-10-18 06:24:00,36.7,34.0,30.05,West,269,2.0,4.0,90,0.00,,,0.00,weatherlink.com 1.10,2013-10-18 11:24:00,
2013-10-18 06:39:00,37.0,35.0,30.06,SW,229,2.0,6.0,91,0.00,,,0.00,weatherlink.com 1.10,2013-10-18 11:39:00,
2013-10-18 06:54:00,37.0,35.0,30.06,WSW,251,0.0,4.0,91,0.00,,,0.00,weatherlink.com 1.10,2013-10-18 11:54:00,
2013-10-18 07:09:00,37.2,35.0,30.06,WNW,283,2.0,4.0,91,0.00,,,0.00,weatherlink.com 1.10,2013-10-18 12:09:00,
2013-10-18 07:24:00,37.2,35.0,30.06,West,271,0.0,4.0,91,0.00,,,0.00,weatherlink.com 1.10,2013-10-18 12:24:00,
2013-10-18 07:39:00,36.0,33.0,30.06,West,271,0.0,2.0,88,0.00,,,0.00,weatherlink.com 1.10,2013-10-18 12:39:00,
2013-10-18 07:55:00,34.8,32.0,30.07,West,279,1.0,2.0,90,0.00,,,0.00,weatherlink.com 1.10,2013-10-18 12:55:00,
2013-10-18 08:10:00,37.4,35.0,30.08,West,280,3.0,5.0,91,0.00,,,0.00,weatherlink.com 1.10,2013-10-18 13:10:00,
2013-10-18 08:25:00,39.1,36.0,30.08,West,274,2.0,4.0,88,0.00,,,0.00,weatherlink.com 1.10,2013-10-18 13:25:00,
2013-10-18 08:40:00,40.3,37.0,30.09,WNW,292,5.0,8.0,87,0.00,,,0.00,weatherlink.com 1.10,2013-10-18 13:40:00,
2013-10-18 08:55:00,40.4,37.0,30.09,WNW,284,1.0,8.0,86,0.00,,,0.00,weatherlink.com 1.10,2013-10-18 13:55:00,
2013-10-18 09:10:00,40.7,37.0,30.10,WNW,294,5.0,10.0,85,0.00,,,0.00,weatherlink.com 1.10,2013-10-18 14:10:00,
2013-10-18 09:25:00,42.0,38.0,30.10,West,277,5.0,9.0,84,0.00,,,0.00,weatherlink.com 1.10,2013-10-18 14:25:00,
2013-10-18 09:40:00,43.1,38.0,30.10,WNW,292,8.0,8.0,82,0.00,,,0.00,weatherlink.com 1.10,2013-10-18 14:40:00,
2013-10-18 09:55:00,44.2,37.0,30.10,West,280,8.0,11.0,77,0.00,,,0.00,weatherlink.com 1.10,2013-10-18 14:55:00,
2013-10-18 10:10:00,44.9,37.0,30.10,WNW,290,11.0,11.0,75,0.00,,,0.00,weatherlink.com 1.10,2013-10-18 15:10:00,
2013-10-18 10:25:00,45.5,38.0,30.10,NW,304,7.0,12.0,74,0.00,,,0.00,weatherlink.com 1.10,2013-10-18 15:25:00,
2013-10-18 10:40:00,46.7,37.0,30.11,WNW,290,9.0,12.0,68,0.00,,,0.00,weatherlink.com 1.10,2013-10-18 15:40:00,
2013-10-18 10:55:00,47.6,37.0,30.10,NW,304,10.0,13.0,66,0.00,,,0.00,weatherlink.com 1.10,2013-10-18 15:55:00,
2013-10-18 11:10:00,47.3,35.0,30.11,NW,311,8.0,14.0,63,0.00,,,0.00,weatherlink.com 1.10,2013-10-18 16:10:00,
2013-10-18 11:25:00,47.9,35.0,30.10,NNW,329,6.0,14.0,62,0.00,,,0.00,weatherlink.com 1.10,2013-10-18 16:25:00,
2013-10-18 11:40:00,48.1,35.0,30.11,WNW,296,12.0,12.0,60,0.00,,,0.00,weatherlink.com 1.10,2013-10-18 16:40:00,
2013-10-18 11:55:00,48.7,34.0,30.10,NW,321,9.0,14.0,58,0.00,,,0.00,weatherlink.com 1.10,2013-10-18 16:55:00,
2013-10-18 12:10:00,49.0,34.0,30.10,WNW,295,6.0,15.0,56,0.00,,,0.00,weatherlink.com 1.10,2013-10-18 17:10:00,
2013-10-18 12:25:00,49.8,34.0,30.09,North,355,7.0,14.0,54,0.00,,,0.00,weatherlink.com 1.10,2013-10-18 17:25:00,
2013-10-18 12:40:00,50.7,32.0,30.08,WNW,303,13.0,14.0,49,0.00,,,0.00,weatherlink.com 1.10,2013-10-18 17:40:00,
2013-10-18 12:55:00,50.6,33.0,30.08,NNW,333,8.0,15.0,51,0.00,,,0.00,weatherlink.com 1.10,2013-10-18 17:55:00,
2013-10-18 13:10:00,50.7,32.0,30.08,WNW,296,8.0,15.0,49,0.00,,,0.00,weatherlink.com 1.10,2013-10-18 18:10:00,
2013-10-18 13:25:00,50.6,32.0,30.07,NNW,329,6.0,13.0,50,0.00,,,0.00,weatherlink.com 1.10,2013-10-18 18:25:00,
2013-10-18 13:40:00,50.7,32.0,30.07,West,277,9.0,15.0,50,0.00,,,0.00,weatherlink.com 1.10,2013-10-18 18:40:00,
2013-10-18 13:55:00,50.6,31.0,30.07,WNW,298,8.0,13.0,48,0.00,,,0.00,weatherlink.com 1.10,2013-10-18 18:55:00,
2013-10-18 14:10:00,50.7,33.0,30.07,NNW,337,5.0,10.0,51,0.00,,,0.00,weatherlink.com 1.10,2013-10-18 19:10:00,
2013-10-18 14:25:00,51.1,32.0,30.06,WNW,288,4.0,12.0,49,0.00,,,0.00,weatherlink.com 1.10,2013-10-18 19:25:00,
2013-10-18 14:40:00,51.1,31.0,30.05,WNW,290,9.0,9.0,47,0.00,,,0.00,weatherlink.com 1.10,2013-10-18 19:40:00,
2013-10-18 14:55:00,50.9,31.0,30.05,WNW,282,4.0,9.0,46,0.00,,,0.00,weatherlink.com 1.10,2013-10-18 19:55:00,
2013-10-18 15:10:00,51.0,31.0,30.05,WSW,243,5.0,12.0,47,0.00,,,0.00,weatherlink.com 1.10,2013-10-18 20:10:00,
2013-10-18 15:25:00,50.8,31.0,30.05,WNW,297,6.0,10.0,47,0.00,,,0.00,weatherlink.com 1.10,2013-10-18 20:25:00,
2013-10-18 15:40:00,50.8,31.0,30.05,West,266,2.0,13.0,47,0.00,,,0.00,weatherlink.com 1.10,2013-10-18 20:40:00,
2013-10-18 15:55:00,51.0,32.0,30.05,West,274,2.0,9.0,49,0.00,,,0.00,weatherlink.com 1.10,2013-10-18 20:55:00,
2013-10-18 16:10:00,51.0,32.0,30.04,WNW,285,2.0,9.0,49,0.00,,,0.00,weatherlink.com 1.10,2013-10-18 21:10:00,
2013-10-18 16:25:00,51.1,31.0,30.04,West,272,1.0,8.0,47,0.00,,,0.00,weatherlink.com 1.10,2013-10-18 21:25:00,
2013-10-18 16:40:00,50.9,31.0,30.04,WSW,246,4.0,7.0,47,0.00,,,0.00,weatherlink.com 1.10,2013-10-18 21:40:00,
2013-10-18 16:55:00,50.8,31.0,30.04,WNW,294,4.0,8.0,46,0.00,,,0.00,weatherlink.com 1.10,2013-10-18 21:55:00,
2013-10-18 17:10:00,50.6,31.0,30.04,West,278,2.0,8.0,47,0.00,,,0.00,weatherlink.com 1.10,2013-10-18 22:10:00,
2013-10-18 17:25:00,50.6,30.0,30.04,WNW,283,1.0,7.0,46,0.00,,,0.00,weatherlink.com 1.10,2013-10-18 22:25:00,
2013-10-18 17:40:00,50.3,32.0,30.04,West,269,0.0,4.0,49,0.00,,,0.00,weatherlink.com 1.10,2013-10-18 22:40:00,
2013-10-18 17:55:00,49.8,32.0,30.04,West,279,0.0,3.0,50,0.00,,,0.00,weatherlink.com 1.10,2013-10-18 22:55:00,
2013-10-18 18:10:00,49.1,31.0,30.04,West,279,1.0,3.0,51,0.00,,,0.00,weatherlink.com 1.10,2013-10-18 23:10:00,
2013-10-18 18:25:00,48.5,32.0,30.03,West,279,0.0,1.0,53,0.00,,,0.00,weatherlink.com 1.10,2013-10-18 23:25:00,
2013-10-18 18:40:00,47.8,32.0,30.03,West,279,0.0,1.0,55,0.00,,,0.00,weatherlink.com 1.10,2013-10-18 23:40:00,
2013-10-18 18:55:00,47.2,33.0,30.03,SW,223,0.0,2.0,59,0.00,,,0.00,weatherlink.com 1.10,2013-10-18 23:55:00,
2013-10-18 19:10:00,46.6,34.0,30.03,SW,219,0.0,4.0,62,0.00,,,0.00,weatherlink.com 1.10,2013-10-19 00:10:00,
2013-10-18 19:25:00,46.1,34.0,30.03,SW,215,0.0,3.0,64,0.00,,,0.00,weatherlink.com 1.10,2013-10-19 00:25:00,
2013-10-18 19:41:00,45.8,35.0,30.03,SW,215,1.0,2.0,65,0.00,,,0.00,weatherlink.com 1.10,2013-10-19 00:41:00,
2013-10-18 19:56:00,45.4,35.0,30.03,SSW,211,0.0,2.0,66,0.00,,,0.00,weatherlink.com 1.10,2013-10-19 00:56:00,
2013-10-18 20:11:00,45.0,35.0,30.03,SW,217,0.0,2.0,67,0.00,,,0.00,weatherlink.com 1.10,2013-10-19 01:11:00,
2013-10-18 20:26:00,44.5,35.0,30.03,West,263,0.0,2.0,69,0.00,,,0.00,weatherlink.com 1.10,2013-10-19 01:26:00,
2013-10-18 20:41:00,43.9,35.0,30.03,WSW,252,0.0,3.0,70,0.00,,,0.00,weatherlink.com 1.10,2013-10-19 01:41:00,
2013-10-18 20:56:00,42.3,34.0,30.03,WSW,252,0.0,0.0,71,0.00,,,0.00,weatherlink.com 1.10,2013-10-19 01:56:00,
2013-10-18 21:11:00,40.0,33.0,30.03,WSW,252,0.0,0.0,76,0.00,,,0.00,weatherlink.com 1.10,2013-10-19 02:11:00,
2013-10-18 21:26:00,38.7,33.0,30.03,WSW,252,0.0,0.0,79,0.00,,,0.00,weatherlink.com 1.10,2013-10-19 02:26:00,
2013-10-18 21:41:00,37.8,32.0,30.03,WSW,252,0.0,0.0,81,0.00,,,0.00,weatherlink.com 1.10,2013-10-19 02:41:00,
2013-10-18 21:56:00,38.5,33.0,30.03,WSW,255,0.0,3.0,81,0.00,,,0.00,weatherlink.com 1.10,2013-10-19 02:56:00,
2013-10-18 22:11:00,40.0,33.0,30.03,WSW,255,0.0,1.0,77,0.00,,,0.00,weatherlink.com 1.10,2013-10-19 03:11:00,
2013-10-18 22:26:00,41.0,34.0,30.02,WSW,251,2.0,4.0,75,0.00,,,0.00,weatherlink.com 1.10,2013-10-19 03:26:00,
2013-10-18 22:41:00,42.3,34.0,30.02,WSW,247,0.0,6.0,73,0.00,,,0.00,weatherlink.com 1.10,2013-10-19 03:41:00,
2013-10-18 22:56:00,43.2,34.0,30.02,WSW,251,1.0,5.0,70,0.00,,,0.00,weatherlink.com 1.10,2013-10-19 03:56:00,
2013-10-18 23:11:00,43.5,34.0,30.02,SSW,194,0.0,7.0,70,0.00,,,0.00,weatherlink.com 1.10,2013-10-19 04:11:00,
2013-10-18 23:26:00,43.6,34.0,30.02,South,188,3.0,5.0,69,0.00,,,0.00,weatherlink.com 1.10,2013-10-19 04:26:00,
2013-10-18 23:41:00,43.7,34.0,30.01,WSW,242,1.0,5.0,69,0.00,,,0.00,weatherlink.com 1.10,2013-10-19 04:41:00,
2013-10-18 23:56:00,43.8,34.0,30.00,South,186,5.0,7.0,68,0.00,,,0.00,weatherlink.com 1.10,2013-10-19 04:56:00,